Weather History for Ellensburg, WA

Change the Weather History Date:

Wednesday, February 6, 2013

  Actual Average (KYKM) Record (KYKM)
Temperature  
Mean Temperature 36 °F 34 °F  
Max Temperature 45 °F 44 °F 60 °F (1967)
Min Temperature 28 °F 25 °F 0 °F (1985)
Degree Days  
Heating Degree Days 28 30  
Month to date heating degree days 185  
Since 1 July heating degree days 3903  
Cooling Degree Days 0 0  
Month to date cooling degree days 0  
Year to date cooling degree days 0  
Moisture  
Dew Point 30 °F    
Average Humidity 74    
Maximum Humidity 85    
Minimum Humidity 58    
Precipitation  
Precipitation 0.00 in 0.03 in 0.58 in (1996)
Month to date precipitation 0.17  
Year to date precipitation 1.31  
Snow  
Snow 0.00 in 0.10 in 3.50 in (1975)
Month to date snowfall 0.7  
Year to date snowfall 6.0  
Since 1 July snowfall 19.0  
Snow Depth -    
Sea Level Pressure  
Sea Level Pressure 29.99 in    
Wind  
Wind Speed 4 mph (East)    
Max Wind Speed 7 mph    
Max Gust Speed -    
Visibility 10 miles    
Events Rain    
T = Trace of Precipitation, MM = Missing Value Source: NWS Daily Summary

Daily Weather History Graph

Daily Weather History Graph

Search for Another Location

Airport:

Trip Planner

Search our weather history database for the weather conditions in past years. The results will help you decide how hot, cold, wet, or windy it might be!

Date:

Astronomy

Feb. 06, 2013 Rise Set
Actual Time 7:19 AM PST 5:13 PM PST
Civil Twilight 6:47 AM PST 5:45 PM PST
Nautical Twilight 6:11 AM PST 6:21 PM PST
Astronomical Twilight 5:36 AM PST 6:56 PM PST
Moon 4:16 AM PST (2/6) 1:29 PM PST (2/6)
Length of Visible Light 10h 57m
Length of Day
9h 53m
Waning Crescent, 16% of the Moon is Illuminated
Feb 6
Waning Crescent
Feb 9
New
Feb 17
First Quarter
Feb 25
Full
Mar 4
Last Quarter

Hourly Weather History & Observations

Time (PST) Temp. Windchill Dew Point Humidity Pressure Visibility Wind Dir Wind Speed Gust Speed Precip Events Conditions
12:53 AM 33.1 °F 30.0 °F 28.0 °F 82% 29.94 in 10.0 mi East 3.5 mph - N/A   Overcast
1:53 AM 33.1 °F 30.0 °F 28.0 °F 82% 29.96 in 10.0 mi ENE 3.5 mph - N/A   Overcast
2:53 AM 33.1 °F 28.7 °F 28.0 °F 82% 29.97 in 10.0 mi ENE 4.6 mph - 0.00 in   Overcast
4:53 AM 30.9 °F 27.5 °F 26.1 °F 82% 29.99 in 10.0 mi East 3.5 mph - 0.00 in   Mostly Cloudy
5:53 AM 28.9 °F 25.2 °F 25.0 °F 85% 30.01 in 5.0 mi ENE 3.5 mph - N/A   Scattered Clouds
6:53 AM 28.9 °F 23.9 °F 24.1 °F 82% 30.01 in 10.0 mi East 4.6 mph - N/A   Clear
7:53 AM 30.0 °F 25.2 °F 25.0 °F 82% 30.03 in 10.0 mi ENE 4.6 mph - N/A   Clear
8:53 AM 35.1 °F 32.2 °F 30.0 °F 82% 30.04 in 10.0 mi ESE 3.5 mph - N/A   Clear
9:53 AM 39.0 °F 36.8 °F 33.1 °F 79% 30.05 in 10.0 mi East 3.5 mph - N/A   Clear
10:53 AM 43.0 °F 40.3 °F 33.1 °F 68% 30.06 in 10.0 mi East 4.6 mph - N/A   Clear
11:53 AM 44.1 °F 42.5 °F 32.0 °F 63% 30.06 in 10.0 mi SE 3.5 mph - N/A   Clear
1:53 PM 45.0 °F - 30.9 °F 58% 30.02 in 10.0 mi Calm Calm - N/A   Overcast
2:53 PM 45.0 °F - 30.9 °F 58% 30.01 in 10.0 mi Calm Calm - N/A   Overcast
3:53 PM 45.0 °F 41.8 °F 30.9 °F 58% 30.00 in 10.0 mi NE 5.8 mph - N/A   Overcast
4:53 PM 43.0 °F 39.5 °F 30.9 °F 62% 29.99 in 10.0 mi ENE 5.8 mph - N/A   Overcast
5:53 PM 42.1 °F 40.2 °F 32.0 °F 67% 29.99 in 10.0 mi South 3.5 mph - N/A   Overcast
6:53 PM 41.0 °F 37.1 °F 33.1 °F 73% 29.98 in 10.0 mi East 5.8 mph - 0.00 in Rain Light Rain
7:53 PM 39.9 °F 35.1 °F 32.0 °F 73% 29.96 in 10.0 mi ENE 6.9 mph - 0.00 in   Mostly Cloudy
8:53 PM 37.9 °F - 30.9 °F 76% 29.95 in 10.0 mi Calm Calm - N/A   Clear
9:53 PM 37.9 °F - 32.0 °F 79% 29.93 in 10.0 mi Calm Calm - N/A   Overcast
10:53 PM 37.0 °F - 30.9 °F 79% 29.92 in 10.0 mi Calm Calm - N/A   Mostly Cloudy
11:53 PM 37.0 °F 33.3 °F 30.0 °F 76% 29.91 in 10.0 mi NNW 4.6 mph - N/A   Overcast